Location: Bun Machan
(52.1403°N, 7.3744°W)
Time: 18:03:57
(UTC+00:00)

Cosmos 2251 Rocket - Pass Details

Date: 14 July 2020
Orbit: 764 x 792 km, 74.0° (Epoch: 12 August)

Event Time Altitude Azimuth Distance (km) Brightness Sun altitude
Exits shadow 01:32:35 24° 202° (SSW) 1,551 4.5 -15.2°
Maximum altitude 01:35:50 87° 113° (ESE) 774 3.5 -15.1°
Drops below altitude 10° 01:41:06 10° 26° (NNE) 2,319 7.3 -14.9°
Sets 01:43:29 0° 26° (NNE) 3,253 8.5 -14.7°
